sat.trackr.live / text

‹ back to catalog

STARLINK-1828

NORAD 46725 · 2020-073BH

PAYLOAD ACTIVE UNKNOWN

§ Identity

Operator
Country
US
Launch date
2020-10-18
Launch site
AFETR
Launch vehicle
Mass (kg)
RCS (m²)

Purposes: comms

External: N2YO · Heavens-Above · Gunter

§ Orbital elements

Epoch: 2026-05-24T22:27:06.626304Z

Period
91.91 min
Inclination
53.0481°
Eccentricity
0.0005844
Mean motion
15.66689745 rev/d
Perigee alt
364.4 km
Apogee alt
372.3 km
Semi-major
6,746.5 km
B*
5.8953e-4
RAAN
224.6531°
Arg perigee
312.1277°
Mean anomaly
47.9240°
Rev number
30,911

§ Raw data

STARLINK-18281 46725U 20073BH  26144.93549336  .00063085  00000+0  58953-3 0  99992 46725  53.0481 224.6531 0005844 312.1277  47.9240 15.66689745309111

JSON: /api/v1/satellites/46725 · /tle

For live sub-satellite position, see the globe view (requires WebGL).

§ Visibility from observer

Set your observer location to see the next 7 days of passes ≥ 10°. The values pass through the URL so the page stays shareable.

No JS? Fill the form by hand. The geolocation button needs JavaScript.